Back to catalog

COSMOS 2452

AliveNavigationPO
NORAD 35499·PAYLOAD·🇷🇺 Russia

Launched Jul 6, 2009 from Plesetsk Cosmodrome

Loading…

Next Passes (next 24 hours)

TLE

FreshSource: Space-Track

Epoch: Sep 14, 2026, 06:55 UTC

1 35499U 09036B   26257.28846944  .00000023  00000-0  95179-4 0  9995
2 35499  82.4937  24.0737 0015014 305.2002  54.7671 12.43012747779847

Track COSMOS 2452 in real time with AllMySat

Download on the App Store